User: anonymous   Login
Location: Petruro
(41.0333°N, 14.7833°E)
Time: 20:04:07
(UTC+00:00)
Language:

COSMOS 2251 DEB - Orbit

View from above orbital plane
View from above orbital plane
View from above satellite
View from above satellite

Ground track
Ground track

The orbit data is extracted from the following two-line orbital elements,

1 40235U 93036BVQ 22023.97813865  .00000816  00000-0  23356-3 0  9998
2 40235  74.0288 254.9159 0016767 343.7294  80.1389 14.46579474387287
Epoch (UTC): 23 January 2022 23:28:31
Eccentricity: 0.0016767
inclination: 74.0288°
perigee height: 725 km
apogee height: 749 km
right ascension of ascending node: 254.9159°
argument of perigee: 343.7294°
revolutions per day: 14.46579474
mean anomaly at epoch: 80.1389°
orbit number at epoch: 38728

The dashed part of the orbit path shows where the satellite is in the earth's shadow,  

DLR